Regional Weather Roundup
Issued by NWS

Home | Current Version | Previous Version | Text Only | Print | Product List | Glossary Off
Versions: 1 2 3 4 5 6 7 8 9 10 11 12 13 14 15 16 17 18 19 20 21 22 23 24 25 26 27 28 29 30 31 32 33 34 35 36 37 38 39 40 41 42 43 44 45 46 47 48 49 50

000
ASUS43 KMPX 232101
RWRMN
WEATHER ROUNDUP FOR MINNESOTA
NATIONAL WEATHER SERVICE TWIN CITIES/CHANHASSEN MN
400 PM CDT TUE AUG 23 2016


NOTE: "FAIR" INDICATES FEW OR NO CLOUDS BELOW 12,000 FEET WITH NO
SIGNIFICANT WEATHER AND/OR OBSTRUCTIONS TO VISIBILITY. N/A MEANS
CURRENT SKY AND/OR WEATHER CONDITIONS ARE NOT AVAILABLE.

MNZ060>063-068>070-232200-
   Twin Cities Metro

CITY           SKY/WX    TMP DP  RH WIND       PRES   REMARKS
TWIN CITIES    CLOUDY    83  68  60 S22G28    29.89F
ST PAUL        CLOUDY    82  69  64 S17G25    29.90F
CRYSTAL        CLOUDY    82  68  62 S16       29.87F
BLAINE         CLOUDY    82  70  65 S15G23    29.89F
LAKEVILLE      CLOUDY    79  70  73 S8        29.91S
EDEN PRAIRIE   CLOUDY    83  70  64 S17G23    29.88F
LAKEVILLE      CLOUDY    79  70  73 S8        29.91S
SOUTH ST PAUL  CLOUDY    83  68  59 S12G20    29.90F
LAKE ELMO      FAIR      81  70  69 S16       29.92S
$$
MNZ001>005-007-008-013>017-022>024-027-028-232200-
   Northwest Minnesota

CITY           SKY/WX    TMP DP  RH WIND       PRES   REMARKS
BEMIDJI        SUNNY     85  69  57 S16G23    29.77S
HALLOCK        CLOUDY    81  66  61 S16G22    29.65R
ROSEAU         CLOUDY    82  70  65 SE13      29.69S
WARROAD        CLOUDY    81  72  74 S8G18     29.70S
THIEF RVR FALL MOSUNNY   87  67  51 S21G28    29.70S HX  90
CROOKSTON      MOSUNNY   88  66  48 S28       29.68F HX  90
FOSSTON        SUNNY     84  64  51 S18G29    29.74R
DETROIT LAKES  SUNNY     82  68  61 S15G24    29.79R
MOORHEAD       SUNNY     88  66  48 S18G26    29.72R HX  90
PARK RAPIDS    SUNNY     86  67  52 S20       29.80R
MAHNOMEN       FAIR      84  68  57 S23G30    29.74S
$$
MNZ006-009>011-018-025>026-232200-
   North Central Minnesota

CITY           SKY/WX    TMP DP  RH WIND       PRES   REMARKS
BAUDETTE       MOSUNNY   81  69  67 SE10      29.70S
FLAG ISLAND    CLOUDY    75  68  78 S3        29.70R
INTL FALLS     PTSUNNY   83  69  62 S7G18     29.76S
WASKISH        SUNNY     86  70  58 S15G26    29.73S HX  90
BIG FORK       SUNNY     84  68  58 S12G20    29.80S
LONGVILLE      SUNNY     82  68  61 S15G23    29.82S
GRAND RAPIDS   SUNNY     83  68  60 S17       29.84S
ORR            MOSUNNY   84  66  54 S12G17    29.79S
COOK           SUNNY     84  66  54 S12G22    29.83S
WALKER         FAIR      84  68  58 S15G21    29.78S
$$
MNZ012-019>021-037-232200-
   Northeast Minnesota

CITY           SKY/WX    TMP DP  RH WIND       PRES   REMARKS
DULUTH         MOSUNNY   84  67  56 S14       29.89S
ELY            SUNNY     82  64  54 S15       29.85F
HIBBING        SUNNY     83  66  56 S12G20    29.84S
EVELETH        SUNNY     83  64  53 S14G22    29.86F
DULUTH HARBOR  CLOUDY    84  68  58 S13       29.85F
TWO HARBORS    SUNNY     84  72  65 S9        29.87S
SILVER BAY     MOSUNNY   82  66  57 S7G16     29.87S
GRAND MARAIS     N/A     73  62  68 CALM      29.88S
G MARAIS ARPRT SUNNY     75  61  60 S8        29.95R
$$
MNZ029>031-032-039>041-046>048-054>057-064-232200-
   West Central Minnesota

CITY           SKY/WX    TMP DP  RH WIND       PRES   REMARKS
FERGUS FALLS   SUNNY     84  70  61 S18G25    29.78S
MORRIS         CLOUDY    84  70  61 S17G24    29.79S
ALEXANDRIA     MOSUNNY   82  69  64 S22       29.83F
ELBOW LAKE     FAIR      82  70  68 S16G23    29.79S
WADENA         MOSUNNY   82  70  65 S20G25    29.80F
GLENWOOD       CLOUDY    82  72  69 S16G24    29.84F
APPLETON       CLOUDY    82  68  61 S15       29.79S
BENSON         MOSUNNY   82  70  65 SW17G24   29.81S
ORTONVILLE     SUNNY     82  64  54 S14G21    29.78S
MADISON        MOSUNNY   81  66  61 S16G23    29.80S
WILLMAR        PTSUNNY   81  72  74 S10       29.86R
$$
MNZ033>034-036-042>043-049>051-058-059-232200-
   Central Minnesota

CITY           SKY/WX    TMP DP  RH WIND       PRES   REMARKS
ST CLOUD       CLOUDY    81  71  71 S14       29.86F
SAUK CENTRE    FAIR      81  70  68 S20G25    29.84F
PAYNESVILLE    CLOUDY    80  69  70 SE13      29.86F
AITKIN         MOSUNNY   82  64  54 S17G26    29.84S
PINE RIVER     MOSUNNY   81  70  69 S10G21    29.86S
BRAINERD       MOSUNNY   83  69  62 S16       29.84F
STAPLES        SUNNY     82  66  57 S17G25    29.82S
LONG PRAIRIE   FAIR      81  70  69 SE14G22   29.84F
LITTLE FALLS   SUNNY     82  66  57 S13G22    29.85F
LITCHFIELD     CLOUDY    81  72  74 SE6       29.86F
BUFFALO        CLOUDY    82  69  66 SE8       29.88F
MAPLE LAKE     CLOUDY    81  73  76 S6        29.88S
HUTCHINSON     PTSUNNY   80  73  77 S9G21     29.87F
$$
MNZ037-044-045-052-053-232200-
   East Central Minnesota

CITY           SKY/WX    TMP DP  RH WIND       PRES   REMARKS
PRINCETON      CLOUDY    82  72  69 S9        29.88S
MORA           PTSUNNY   79  64  61 S10G16    29.90S
CAMBRIDGE      CLOUDY    84  70  61 SE6       29.87S
RUSH CITY      CLOUDY    81  69  67 S8G18     29.90R
MOOSE LAKE     MOSUNNY   81  64  57 S13G20    29.86S
HINCKLEY       FAIR      82  70  65 S15G21    29.89S
CLOQUET        MOSUNNY   82  64  54 S13G21    29.88S
MCGREGOR       MOSUNNY   82  68  61 S13G21    29.87R
$$
MNZ071>073-080-081-089-090-097-098-232200-
   Southwest Minnesota

CITY           SKY/WX    TMP DP  RH WIND       PRES   REMARKS
MONTEVIDEO     CLOUDY    82  70  65 SW12      29.84R
GRANITE FALLS  CLOUDY    80  72  76 SE15G21   29.84S
CANBY          CLOUDY    80  66  63 S15G21    29.82S
MARSHALL       CLOUDY    76  69  79 S12       29.83S
REDWOOD FALLS  PTSUNNY   79  70  74 SE13      29.84F
OLIVIA         CLOUDY    77  70  78 S10       29.85R
PIPESTONE      CLOUDY    72  66  83 S13G18    29.85S
WINDOM         TSTM      73  70  88 SE12      29.86F
WORTHINGTON    LGT RAIN  67  64  90 S20G30    29.88R
JACKSON        TSTM      73  68  83 S13       29.89F
TRACY          CLOUDY    74  71  91 SE10      29.83F
$$
MNZ065>067-074>077-082>085-091>093-232200-
   South Central Minnesota

CITY           SKY/WX    TMP DP  RH WIND       PRES   REMARKS
MANKATO        CLOUDY    79  66  65 SE15G23   29.89S
NEW ULM        CLOUDY    77  70  78 S15       29.86S
ST JAMES       CLOUDY    72  64  78 SE9       29.89R
FAIRMONT       CLOUDY    76  69  79 S16       29.90R
GLENCOE        CLOUDY    82  74  77 SE10G18   29.87S
FARIBAULT      CLOUDY    81  66  61 SE18      29.93S
OWATONNA       CLOUDY    79  64  61 S15G22    29.94S
WASECA         CLOUDY    77  66  69 SE14G20   29.93F
ALBERT LEA     CLOUDY    79  63  57 S16G24    29.94S
$$
MNZ078>079-086>088-094>096-232200-
   Southeast Minnesota

CITY           SKY/WX    TMP DP  RH WIND       PRES   REMARKS
ROCHESTER      CLOUDY    78  65  63 S15G25    29.98F
RED WING       CLOUDY    84  63  48 S12G21    29.92S
DODGE CENTER   CLOUDY    77  64  65 S20       29.97S
WINONA         PTSUNNY   81  63  54 S7        29.97F
AUSTIN         CLOUDY    77  63  61 S14G21    29.96F
PRESTON        CLOUDY    78  64  62 S15G23    30.00S
$$
ABBREVIATIONS USED IN REMARKS
   TC - TEMPERATURES IN CELSIUS
  WCI - WIND CHILL INDEX
   HX - HEAT INDEX
  VSB - VISIBILITY
$$




USA.gov is the U.S. government's official web portal to all federal, state and local government web resources and services.